• In Deutschland
  • Länderverzeichnis
  • Für 7 Tage
  • Wassertemperatur
  • Satellitenkarten
  • Wetterkarte
  • Widgets
  • user-avatar
    Anmelden

    Stündliche Wetter Annweiler am Trifels

    Heute, 21 Januar, Sonntag

    Zeit Temperatur Niederschläge Wind Luftdruck Luftfeuchtigkeit
    00:00 +1°C° 0,3 mm 2 m/S 728 mmHg 93%
    01:00 +2°C° 0 mm 2 m/S 729 mmHg 91%
    02:00 +1°C° 0 mm 3 m/S 730 mmHg 90%
    03:00 +1°C° 0 mm 3 m/S 731 mmHg 90%
    04:00 0°C° 0 mm 3 m/S 732 mmHg 89%
    05:00 0°C° 0 mm 3 m/S 733 mmHg 89%
    06:00 0°C° 0 mm 3 m/S 734 mmHg 88%
    07:00 +1°C° 0 mm 2 m/S 736 mmHg 90%
    08:00 0°C° 0 mm 3 m/S 737 mmHg 88%
    09:00 0°C° 0 mm 3 m/S 738 mmHg 85%
    10:00 +1°C° 0 mm 3 m/S 739 mmHg 83%
    11:00 +1°C° 0 mm 3 m/S 739 mmHg 78%
    12:00 +2°C° 0 mm 3 m/S 740 mmHg 74%
    13:00 +3°C° 0 mm 3 m/S 740 mmHg 71%
    14:00 +4°C° 0 mm 2 m/S 741 mmHg 72%
    15:00 +4°C° 0 mm 2 m/S 741 mmHg 73%
    16:00 +4°C° 0 mm 1 m/S 741 mmHg 74%
    17:00 +4°C° 0 mm 1 m/S 741 mmHg 78%
    18:00 +3°C° 0 mm 1 m/S 741 mmHg 81%
    19:00 +2°C° 0 mm 1 m/S 741 mmHg 85%
    20:00 +1°C° 0,1 mm 2 m/S 740 mmHg 84%
    21:00 +1°C° 0,1 mm 2 m/S 740 mmHg 84%
    22:00 +2°C° 0,1 mm 2 m/S 739 mmHg 84%
    23:00 +2°C° 0,6 mm 2 m/S 738 mmHg 85%

    Morgen, 22 Januar, Montag

    Zeit Temperatur Niederschläge Wind Luftdruck Luftfeuchtigkeit
    00:00 +2°C° 0,6 mm 2 m/S 737 mmHg 86%
    01:00 +2°C° 0,6 mm 2 m/S 736 mmHg 87%
    02:00 +2°C° 0,8 mm 2 m/S 736 mmHg 89%
    03:00 +2°C° 0,8 mm 2 m/S 735 mmHg 92%
    04:00 +3°C° 0,8 mm 1 m/S 735 mmHg 94%
    05:00 +4°C° 0,1 mm 1 m/S 734 mmHg 95%
    06:00 +4°C° 0,1 mm 1 m/S 734 mmHg 95%
    07:00 +4°C° 0,1 mm 1 m/S 734 mmHg 96%
    08:00 +4°C° 0,1 mm 2 m/S 734 mmHg 96%
    09:00 +5°C° 0,1 mm 2 m/S 735 mmHg 96%
    10:00 +5°C° 0,1 mm 3 m/S 735 mmHg 96%
    11:00 +7°C° 0,2 mm 3 m/S 735 mmHg 96%
    12:00 +7°C° 0,2 mm 3 m/S 735 mmHg 95%
    13:00 +8°C° 0,2 mm 3 m/S 736 mmHg 95%
    14:00 +8°C° 0,1 mm 3 m/S 736 mmHg 94%
    15:00 +7°C° 0,1 mm 3 m/S 737 mmHg 93%
    16:00 +7°C° 0,1 mm 3 m/S 737 mmHg 93%
    17:00 +7°C° 0,1 mm 3 m/S 738 mmHg 92%
    18:00 +7°C° 0,1 mm 3 m/S 739 mmHg 91%
    19:00 +5°C° 0,1 mm 3 m/S 740 mmHg 90%
    20:00 +5°C° 0 mm 3 m/S 741 mmHg 89%
    21:00 +5°C° 0 mm 3 m/S 741 mmHg 88%
    22:00 +6°C° 0 mm 2 m/S 742 mmHg 87%
    23:00 +6°C° 0 mm 2 m/S 743 mmHg 87%

    übermorgen, 23 Januar, Dienstag

    Zeit Temperatur Niederschläge Wind Luftdruck Luftfeuchtigkeit
    00:00 +4°C° 0 mm 3 m/S 743 mmHg 87%
    01:00 +4°C° 0 mm 3 m/S 744 mmHg 87%
    02:00 +5°C° 0 mm 2 m/S 744 mmHg 89%
    03:00 +4°C° 0 mm 2 m/S 744 mmHg 90%
    04:00 +4°C° 0 mm 2 m/S 744 mmHg 92%
    05:00 +3°C° 0 mm 2 m/S 745 mmHg 93%
    06:00 +3°C° 0 mm 2 m/S 745 mmHg 93%
    07:00 +3°C° 0 mm 2 m/S 745 mmHg 94%
    08:00 +3°C° 0 mm 2 m/S 745 mmHg 93%
    09:00 +4°C° 0 mm 2 m/S 746 mmHg 92%
    10:00 +5°C° 0 mm 2 m/S 746 mmHg 91%
    11:00 +5°C° 0 mm 2 m/S 746 mmHg 89%
    12:00 +5°C° 0 mm 3 m/S 746 mmHg 87%
    13:00 +7°C° 0 mm 3 m/S 746 mmHg 85%
    14:00 +7°C° 0 mm 3 m/S 746 mmHg 85%
    15:00 +8°C° 0 mm 3 m/S 746 mmHg 85%
    16:00 +8°C° 0 mm 2 m/S 745 mmHg 86%
    17:00 +7°C° 0 mm 3 m/S 745 mmHg 87%
    18:00 +7°C° 0 mm 3 m/S 745 mmHg 88%
    19:00 +7°C° 0 mm 3 m/S 745 mmHg 89%
    20:00 +6°C° 0 mm 4 m/S 746 mmHg 89%
    21:00 +6°C° 0 mm 4 m/S 746 mmHg 89%
    22:00 +6°C° 0 mm 4 m/S 746 mmHg 90%
    23:00 +7°C° 0 mm 4 m/S 746 mmHg 90%

    24 Januar, Mittwoch

    Zeit Temperatur Niederschläge Wind Luftdruck Luftfeuchtigkeit
    00:00 +7°C° 0 mm 4 m/S 746 mmHg 91%
    01:00 +7°C° 0 mm 4 m/S 745 mmHg 91%
    02:00 +7°C° 0 mm 4 m/S 745 mmHg 91%
    03:00 +7°C° 0 mm 4 m/S 745 mmHg 92%
    04:00 +7°C° 0 mm 4 m/S 745 mmHg 92%
    05:00 +7°C° 0 mm 4 m/S 745 mmHg 92%
    06:00 +6°C° 0 mm 4 m/S 745 mmHg 92%
    07:00 +6°C° 0 mm 4 m/S 745 mmHg 93%
    08:00 +6°C° 0 mm 4 m/S 745 mmHg 91%
    09:00 +7°C° 0 mm 4 m/S 745 mmHg 89%
    10:00 +7°C° 0 mm 4 m/S 745 mmHg 87%
    11:00 +8°C° 0 mm 4 m/S 744 mmHg 84%
    12:00 +10°C° 0 mm 4 m/S 744 mmHg 81%
    13:00 +10°C° 0 mm 5 m/S 744 mmHg 77%
    14:00 +11°C° 0 mm 4 m/S 743 mmHg 79%
    15:00 +11°C° 0 mm 4 m/S 743 mmHg 80%
    16:00 +11°C° 0 mm 3 m/S 742 mmHg 81%
    17:00 +10°C° 0 mm 3 m/S 742 mmHg 83%
    18:00 +8°C° 0 mm 4 m/S 742 mmHg 84%
    19:00 +8°C° 0 mm 4 m/S 741 mmHg 85%
    20:00 +8°C° 0 mm 4 m/S 741 mmHg 84%
    21:00 +8°C° 0 mm 4 m/S 741 mmHg 83%
    22:00 +7°C° 0 mm 4 m/S 741 mmHg 81%
    23:00 +8°C° 0 mm 5 m/S 740 mmHg 79%

    25 Januar, Donnerstag

    Zeit Temperatur Niederschläge Wind Luftdruck Luftfeuchtigkeit
    00:00 +8°C° 0 mm 5 m/S 740 mmHg 77%
    01:00 +8°C° 0 mm 5 m/S 739 mmHg 75%
    02:00 +8°C° 0,1 mm 5 m/S 739 mmHg 76%
    03:00 +8°C° 0,1 mm 5 m/S 739 mmHg 77%
    04:00 +8°C° 0,1 mm 6 m/S 739 mmHg 78%
    05:00 +8°C° 0,6 mm 5 m/S 738 mmHg 80%
    06:00 +8°C° 0,6 mm 5 m/S 738 mmHg 82%
    07:00 +7°C° 0,6 mm 5 m/S 738 mmHg 84%
    08:00 +7°C° 0,8 mm 5 m/S 738 mmHg 84%
    09:00 +7°C° 0,8 mm 5 m/S 738 mmHg 85%
    10:00 +7°C° 0,8 mm 5 m/S 739 mmHg 85%
    11:00 +7°C° 0,9 mm 4 m/S 738 mmHg 86%
    12:00 +7°C° 0,9 mm 4 m/S 738 mmHg 87%
    13:00 +8°C° 0,9 mm 3 m/S 738 mmHg 88%
    14:00 +8°C° 0,9 mm 2 m/S 738 mmHg 89%
    15:00 +7°C° 0,9 mm 2 m/S 738 mmHg 91%
    16:00 +8°C° 0,9 mm 1 m/S 738 mmHg 92%
    17:00 +8°C° 0,8 mm 1 m/S 738 mmHg 93%
    18:00 +7°C° 0,8 mm 1 m/S 738 mmHg 94%
    19:00 +7°C° 0,8 mm 1 m/S 738 mmHg 95%
    20:00 +7°C° 0,4 mm 1 m/S 738 mmHg 95%
    21:00 +7°C° 0,4 mm 1 m/S 738 mmHg 94%
    22:00 +6°C° 0,4 mm 1 m/S 738 mmHg 94%
    23:00 +6°C° 0,2 mm 1 m/S 738 mmHg 94%

    26 Januar, Freitag

    Zeit Temperatur Niederschläge Wind Luftdruck Luftfeuchtigkeit
    00:00 +6°C° 0,2 mm 1 m/S 738 mmHg 94%
    01:00 +6°C° 0,2 mm 1 m/S 738 mmHg 93%
    02:00 +5°C° 0 mm 1 m/S 738 mmHg 93%
    03:00 +5°C° 0 mm 1 m/S 738 mmHg 93%
    04:00 +5°C° 0 mm 1 m/S 738 mmHg 93%
    05:00 +5°C° 0,2 mm 1 m/S 738 mmHg 93%
    06:00 +5°C° 0,2 mm 1 m/S 739 mmHg 93%
    07:00 +5°C° 0,2 mm 1 m/S 739 mmHg 93%
    08:00 +5°C° 0,4 mm 1 m/S 740 mmHg 92%
    09:00 +5°C° 0,4 mm 1 m/S 740 mmHg 92%
    10:00 +6°C° 0,4 mm 1 m/S 741 mmHg 91%
    11:00 +5°C° 0,1 mm 2 m/S 741 mmHg 88%
    12:00 +6°C° 0,1 mm 2 m/S 741 mmHg 86%
    13:00 +5°C° 0,1 mm 3 m/S 741 mmHg 83%
    14:00 +5°C° 0 mm 3 m/S 742 mmHg 82%
    15:00 +5°C° 0 mm 3 m/S 742 mmHg 81%
    16:00 +6°C° 0 mm 2 m/S 742 mmHg 80%
    17:00 +5°C° 0 mm 2 m/S 743 mmHg 82%
    18:00 +5°C° 0 mm 2 m/S 743 mmHg 85%
    19:00 +4°C° 0 mm 2 m/S 743 mmHg 87%
    20:00 +4°C° 0 mm 2 m/S 744 mmHg 88%
    21:00 +3°C° 0 mm 2 m/S 745 mmHg 89%
    22:00 +3°C° 0 mm 2 m/S 745 mmHg 90%
    23:00 +3°C° 0 mm 2 m/S 746 mmHg 91%
    Mehr zeigen